User: anonymous   Login
Location: Bothell
(47.7630°N, 122.2040°W)
Time: 11:24:38
(UTC-08:00)
Language:

Oscar 16 - Orbit

View from above orbital plane
View from above orbital plane
View from above satellite
View from above satellite

Ground track
Ground track

The orbit data is extracted from the following two-line orbital elements,

1 20439U 90005D   17054.75504911  .00000008  00000-0  19198-4 0  9991
2 20439  98.5998 354.8837 0011592 132.9373 286.4401 14.32668153415163
Epoch (UTC): 23 February 2017 18:07:16
Eccentricity: 0.0011592
inclination: 98.5998°
perigee height: 774 km
apogee height: 791 km
right ascension of ascending node: 354.8837°
argument of perigee: 132.9373°
revolutions per day: 14.32668153
mean anomaly at epoch: 286.4401°
orbit number at epoch: 41516

The dashed part of the orbit path shows where the satellite is in the earth's shadow,  

DLR